Location: Walnut Point State Park
(39.6958°N, 88.0345°W)
Time: 23:22:58
(UTC-05:00)

Cosmos 1833 Rocket - Visible Passes

Search period start: 23 July 2014 00:00
Search period end: 02 August 2014 00:00
Orbit: 834 x 839 km, 71.0° (Epoch: 23 July)

Date Brightness Start Highest point End Pass type
(mag) Time Alt. Az. Time Alt. Az. Time Alt. Az.
23 Jul 5.9 04:48:19 10° N 04:51:53 17° NE 04:55:25 10° E visible
23 Jul 4.6 21:20:48 10° WSW 21:25:50 33° WNW 21:30:53 10° N visible
24 Jul 5.9 04:31:55 10° NNE 04:35:14 16° NE 04:38:31 10° E visible
24 Jul 4.5 21:04:05 10° SW 21:09:13 36° WNW 21:14:22 10° N visible
25 Jul 6.0 04:15:33 10° NNE 04:18:34 15° NE 04:21:35 10° E visible
25 Jul 4.4 20:47:23 10° SW 20:52:36 39° WNW 20:57:50 10° N visible
26 Jul 6.0 03:59:12 10° NNE 04:01:54 14° NE 04:04:36 10° ENE visible
27 Jul 6.0 03:42:55 10° NNE 03:45:14 13° NE 03:47:34 10° ENE visible
28 Jul 6.0 03:26:42 10° NNE 03:28:34 12° NE 03:30:26 10° ENE visible
28 Jul 3.1 05:07:55 10° NNW 05:13:32 72° ENE 05:19:07 10° SSE visible
29 Jul 6.0 03:10:40 10° NNE 03:11:54 11° NE 03:13:07 10° ENE visible
29 Jul 3.2 04:51:21 10° NNW 04:56:57 67° ENE 05:02:30 10° SSE visible
30 Jul 3.3 04:34:47 10° NNW 04:40:21 61° ENE 04:45:52 10° SE visible
31 Jul 3.4 04:18:13 10° NNW 04:23:45 56° ENE 04:29:14 10° SE visible
31 Jul 6.3 20:57:37 10° NW 20:58:04 10° NW 20:58:32 10° NW visible
01 Aug 3.5 04:01:40 10° NNW 04:07:09 52° ENE 04:12:35 10° SE visible
01 Aug 6.2 20:39:54 10° WNW 20:41:24 11° NW 20:42:53 10° NNW visible
